STARLINK-1828, 46725

Orbit data source: Space-Track

STARLINK-1828, 46725 is a payload satellite owned by SpaceX/Seattle (US) in LEO that was launched on Sun, 18 Oct 2020 UTC via an FALCON 9 launch vehicle from the Air Force Eastern Test Range (AFETR). Payload-class satellites include a variety of spacecraft equipped with specific instruments for various scientific and technological missions. These include communications satellites like Starlink; space stations such as the ISS; scientific satellites like the Hubble; Earth observation satellites from companies like Planet Labs, Umbra, and HawkEye 360; GPS; miniature CubeSats for education and research; and military/defense satellites.

Loading next visibility...
Identifier
46725, 2020-073BH
Orbit
LEO
Country
Flag of USUS
Related business
Manufacturer
SpaceX/Seattle
Mission
Operational Commercial Communications
Bus & Motor
STARLINK, Unknown motor
Mass
260 kg wet, ~248 kg dry
Launch date (UTC)
2020-10-18 (5 years ago)
Launch vehicle
FALCON 9
Launch site
Air Force Eastern Test Range (AFETR)
Object type
Payload
Rocket body
Debris
Shape & HBR
Box + 1 Pan, 10.1 m
Radar Cross Section
13.562 m², Large (>1 m²)

Expand to show TLE details & history
Last TLE update: 2 days ago

TLE from 2 days ago
0 STARLINK-1828
1 46725U 20073BH  25306.19079900 -.00003378  00000-0 -20804-3 0  9997
2 46725  53.0542 108.9802 0001370  81.4582 278.6563 15.06386063277700
Epoch: 2025-11-02T04:34Z
TLE epoch observation values (Epoch: 2025-11-02T04:34:45.033Z)
Latitude
0.00004°
Longitude
-1.41749°
Altitude
547.991 km
Speed
7.589 km/s
True Right ascension
07h 15m 55s
True Declination
0° 00' 00"
Sunlit
Object was in daylight at epoch
Visualization orbit readout
Latitude
Unknown
Longitude
Unknown
Altitude
Unknown
Speed
Unknown
Apparent Right ascension
Unknown
Apparent Declination
Unknown
Sunlit
N/A
Visualization observer readout
Local Sidereal Time
19:35:27
Azimuth
Unknown
Elevation
Unknown
Doppler factor
Unknown
Orbital elements
Apogee altitude
548.474 km
Perigee altitude
546.576 km
Semi-major axis
6,925.662 km
Eccentricity
0.00014
Inclination
53.0542°
RAAN
108.9802°
Arg. of periapsis
81.4582°
True anomaly
278.64078°
Mean anomaly
278.6563°
Eccentric anomaly
278.64854°
Mean motion
3.76575 °/min
Orbital period
95.6 mins
BSTAR
-0.00020804
Loading maneuver chart data...
Computing Atmospheric mass density...

Documentation

Showing up to 5 results
|